| time (UTC) | temp F | wind direction | speed MPH | gust MPH | rain 1hr in | rain 24hr in | rain mn in | humidity % | barometer mb |
| 20260505180037 | 54 | 306 | 2.0 | 4.0 | 0.06 | 0.13 | 0.13 | 92 | 1006.7 |
| 20260505174534 | 54 | 317 | 2.0 | 4.0 | 0.03 | 0.11 | 0.11 | 92 | 1006.6 |
| 20260505173042 | 54 | 351 | 2.0 | 5.0 | 0.02 | 0.09 | 0.09 | 92 | 1006.7 |
| 20260505171543 | 54 | 352 | 1.0 | 3.0 | 0.00 | 0.08 | 0.08 | 92 | 1006.7 |
| 20260505170031 | 55 | 352 | 2.0 | 4.0 | 0.00 | 0.08 | 0.08 | 91 | 1006.8 |
| 20260505164531 | 55 | 352 | 1.0 | 5.0 | 0.00 | 0.08 | 0.08 | 91 | 1006.7 |
| 20260505163030 | 55 | 9 | 2.0 | 3.0 | 0.00 | 0.08 | 0.08 | 91 | 1006.8 |
| 20260505161529 | 55 | 11 | 1.0 | 3.0 | 0.00 | 0.08 | 0.08 | 92 | 1006.8 |
| 20260505153026 | 54 | 12 | 1.0 | 3.0 | 0.02 | 0.10 | 0.08 | 92 | 1007.0 |
| 20260505151531 | 54 | 13 | 1.0 | 4.0 | 0.02 | 0.10 | 0.08 | 92 | 1007.2 |
| 20260505124512 | 54 | 71 | 4.0 | 11.0 | 0.03 | 0.07 | 0.03 | 91 | 1008.1 |
| 20260505123012 | 54 | 45 | 6.0 | 12.0 | 0.02 | 0.06 | 0.02 | 91 | 1008.2 |
| 20260505121511 | 55 | 46 | 8.0 | 12.0 | 0.02 | 0.06 | 0.02 | 90 | 1008.3 |
| 20260505120033 | 55 | 27 | 7.0 | 12.0 | 0.01 | 0.05 | 0.01 | 89 | 1008.3 |
| 20260505114511 | 56 | 20 | 5.0 | 10.0 | 0.00 | 0.04 | 0.00 | 88 | 1008.3 |
| 20260505113008 | 56 | 17 | 7.0 | 12.0 | 0.00 | 0.04 | 0.00 | 87 | 1008.2 |
| 20260505111508 | 56 | 16 | 6.0 | 10.0 | 0.00 | 0.04 | 0.00 | 86 | 1008.4 |
| 20260505101534 | 59 | 15 | 6.0 | 10.0 | 0.00 | 0.05 | 0.00 | 83 | 1008.6 |
| 20260505100004 | 59 | 355 | 2.0 | 7.0 | 0.00 | 0.05 | 0.00 | 83 | 1008.5 |
| 20260505094501 | 59 | 328 | 0.0 | 5.0 | 0.00 | 0.05 | 0.00 | 84 | 1008.6 |
| 20260505093102 | 58 | 334 | 4.0 | 9.0 | 0.00 | 0.05 | 0.00 | 84 | 1008.6 |
| 20260505091606 | 58 | 360 | 5.0 | 9.0 | 0.00 | 0.05 | 0.00 | 85 | 1008.7 |
| 20260505090100 | 58 | 351 | 5.0 | 9.0 | 0.00 | 0.05 | 0.00 | 84 | 1008.8 |
| 20260505084555 | 58 | 329 | 4.0 | 9.0 | 0.00 | 0.05 | 0.00 | 86 | 1008.7 |
| 20260505083052 | 56 | 13 | 4.0 | 8.0 | 0.00 | 0.05 | 0.00 | 87 | 1008.9 |
| 20260505081549 | 56 | 8 | 2.0 | 4.0 | 0.00 | 0.05 | 0.00 | 89 | 1008.9 |
| 20260505080049 | 56 | 359 | 2.0 | 4.0 | 0.00 | 0.05 | 0.00 | 89 | 1009.1 |
| 20260505074546 | 55 | 360 | 4.0 | 6.0 | 0.00 | 0.05 | 0.00 | 90 | 1009.2 |
| 20260505073059 | 54 | 340 | 2.0 | 6.0 | 0.00 | 0.05 | 0.00 | 91 | 1009.5 |
| 20260505071540 | 54 | 11 | 1.0 | 4.0 | 0.00 | 0.05 | 0.00 | 91 | 1009.6 |
| 20260505070040 | 54 | 4 | 4.0 | 6.0 | 0.00 | 0.05 | 0.00 | 92 | 1009.6 |
| 20260505064542 | 54 | 354 | 0.0 | 0.0 | 0.00 | 0.05 | 0.00 | 93 | 1009.7 |
| 20260505063037 | 53 | 354 | 0.0 | 3.0 | 0.00 | 0.05 | 0.00 | 94 | 1009.8 |
| 20260505061547 | 52 | 7 | 0.0 | 2.0 | 0.00 | 0.05 | 0.00 | 94 | 1009.7 |
| 20260505060035 | 52 | 7 | 1.0 | 3.0 | 0.00 | 0.05 | 0.00 | 94 | 1009.8 |
| 20260505054556 | 51 | 8 | 2.0 | 3.0 | 0.00 | 0.05 | 0.00 | 94 | 1009.7 |
| 20260505053033 | 51 | 8 | 1.0 | 3.0 | 0.00 | 0.05 | 0.00 | 94 | 1009.8 |
| 20260505051533 | 50 | 8 | 2.0 | 3.0 | 0.00 | 0.05 | 0.00 | 94 | 1009.7 |
| 20260505041527 | 49 | 9 | 0.0 | 2.0 | 0.00 | 0.05 | 0.00 | 94 | 1009.9 |
| 20260505040027 | 49 | 9 | 0.0 | 0.0 | 0.00 | 0.05 | 0.00 | 93 | 1009.9 |
| 20260505034526 | 49 | 9 | 2.0 | 4.0 | 0.00 | 0.05 | 0.00 | 93 | 1010.0 |
| 20260505033024 | 48 | 6 | 3.0 | 6.0 | 0.00 | 0.05 | 0.00 | 93 | 1010.1 |
| 20260505031538 | 49 | 12 | 3.0 | 4.0 | 0.00 | 0.05 | 0.00 | 92 | 1010.1 |
| 20260505030019 | 49 | 13 | 1.0 | 3.0 | 0.00 | 0.05 | 0.00 | 93 | 1010.3 |
| 20260505024530 | 49 | 13 | 2.0 | 5.0 | 0.00 | 0.05 | 0.00 | 93 | 1010.3 |
| 20260505023016 | 49 | 14 | 3.0 | 6.0 | 0.00 | 0.05 | 0.00 | 93 | 1010.6 |
| 20260505021519 | 49 | 2 | 2.0 | 7.0 | 0.00 | 0.05 | 0.00 | 93 | 1010.7 |
| 20260505020025 | 50 | 360 | 4.0 | 6.0 | 0.00 | 0.05 | 0.00 | 92 | 1010.5 |
| 20260505014511 | 50 | 18 | 4.0 | 7.0 | 0.00 | 0.05 | 0.00 | 92 | 1010.7 |
| 20260505013009 | 50 | 13 | 4.0 | 6.0 | 0.00 | 0.05 | 0.00 | 92 | 1010.8 |
| 20260505011509 | 50 | 14 | 3.0 | 6.0 | 0.00 | 0.05 | 0.00 | 92 | 1010.9 |
| 20260505010006 | 50 | 14 | 4.0 | 5.0 | 0.00 | 0.05 | 0.00 | 93 | 1011.1 |
| 20260505004508 | 50 | 17 | 4.0 | 6.0 | 0.00 | 0.05 | 0.00 | 93 | 1011.3 |
| 20260505003004 | 49 | 6 | 2.0 | 5.0 | 0.00 | 0.05 | 0.00 | 92 | 1011.4 |
| 20260505001503 | 49 | 9 | 3.0 | 5.0 | 0.00 | 0.05 | 0.00 | 92 | 1011.5 |
| 20260505000004 | 49 | 14 | 2.0 | 5.0 | 0.00 | 0.05 | 0.00 | 92 | 1011.5 |
| 20260504234600 | 49 | 22 | 2.0 | 4.0 | 0.00 | 0.05 | 0.00 | 92 | 1011.5 |
| 20260504233102 | 50 | 19 | 3.0 | 5.0 | 0.00 | 0.05 | 0.00 | 92 | 1011.5 |
| 20260504231558 | 50 | 23 | 3.0 | 7.0 | 0.00 | 0.05 | 0.00 | 92 | 1011.5 |
| 20260504230106 | 50 | 12 | 4.0 | 6.0 | 0.00 | 0.05 | 0.00 | 91 | 1011.6 |
| 20260504224553 | 51 | 9 | 4.0 | 6.0 | 0.00 | 0.05 | 0.00 | 91 | 1011.7 |
| 20260504223050 | 51 | 11 | 4.0 | 7.0 | 0.00 | 0.05 | 0.00 | 91 | 1012.0 |
| 20260504221558 | 52 | 10 | 4.0 | 7.0 | 0.00 | 0.05 | 0.00 | 91 | 1012.1 |
| 20260504220044 | 52 | 11 | 4.0 | 7.0 | 0.00 | 0.05 | 0.00 | 91 | 1012.2 |
| 20260504214542 | 52 | 15 | 4.0 | 6.0 | 0.00 | 0.05 | 0.05 | 91 | 1012.5 |
| 20260504213045 | 52 | 9 | 5.0 | 7.0 | 0.00 | 0.05 | 0.05 | 90 | 1012.7 |
| 20260504211545 | 52 | 15 | 5.0 | 8.0 | 0.00 | 0.05 | 0.05 | 90 | 1012.7 |
| 20260504210040 | 52 | 12 | 4.0 | 7.0 | 0.00 | 0.05 | 0.05 | 90 | 1012.8 |
| 20260504204541 | 53 | 11 | 4.0 | 8.0 | 0.00 | 0.05 | 0.05 | 90 | 1012.8 |
| 20260504203039 | 53 | 15 | 5.0 | 10.0 | 0.00 | 0.05 | 0.05 | 91 | 1012.9 |
| 20260504201538 | 53 | 13 | 6.0 | 9.0 | 0.00 | 0.05 | 0.05 | 91 | 1012.9 |
| 20260504200038 | 53 | 21 | 3.0 | 5.0 | 0.00 | 0.05 | 0.05 | 91 | 1013.0 |
| 20260504194538 | 53 | 4 | 3.0 | 5.0 | 0.00 | 0.05 | 0.05 | 91 | 1012.9 |
| 20260504193036 | 53 | 1 | 1.0 | 3.0 | 0.00 | 0.05 | 0.05 | 90 | 1012.8 |
| 20260504191540 | 53 | 358 | 2.0 | 6.0 | 0.00 | 0.05 | 0.05 | 90 | 1012.7 |
| 20260504190036 | 53 | 352 | 2.0 | 6.0 | 0.00 | 0.05 | 0.05 | 90 | 1012.5 |
| 20260504184535 | 53 | 341 | 3.0 | 7.0 | 0.00 | 0.05 | 0.05 | 90 | 1012.5 |
| 20260504183034 | 53 | 15 | 2.0 | 3.0 | 0.00 | 0.05 | 0.05 | 90 | 1012.7 |
| 20260504181535 | 53 | 15 | 2.0 | 3.0 | 0.00 | 0.05 | 0.05 | 90 | 1012.6 |